Regional Weather Roundup
Issued by NWS Cleveland, OH

Home | Current Version | Previous Version | Graphics & Text | Print | Product List | Glossary On
Versions: 1 2 3 4 5 6 7 8 9 10 11 12 13 14 15 16 17 18 19 20 21 22 23 24 25 26 27 28 29 30 31 32 33 34 35 36 37 38 39 40 41 42 43 44 45 46 47 48 49 50
945
ASUS41 KCLE 221902
RWRCLE
OHIO REGIONAL WEATHER ROUNDUP
NATIONAL WEATHER SERVICE CLEVELAND, OH
200 PM EST SUN JAN 22 2017

NOTE: "FAIR" INDICATES FEW OR NO CLOUDS BELOW 12,000 FEET WITH NO
SIGNIFICANT WEATHER AND/OR OBSTRUCTIONS TO VISIBILITY.

OHZ001>008-015>018-024>027-034-035-043-044-222000-
   NORTHWEST OHIO

CITY           SKY/WX    TMP DP  RH WIND       PRES   REMARKS
DEFIANCE       MOSUNNY   57  50  77 N8        29.55F
FINDLAY        MOSUNNY   65  49  56 NE3       29.53F
TOLEDO EXPRESS SUNNY     61  52  72 NW6       29.56F
TOLEDO EXEC    SUNNY     56  49  77 N9        29.57F
LIMA           MOSUNNY   62  52  69 NE5       29.52F
$$

OHZ009>014-019>023-028>033-038-089-222000-
   NORTHEAST OHIO

CITY           SKY/WX    TMP DP  RH WIND       PRES   REMARKS
CLE-HOPKINS    CLOUDY    61  50  67 NE8       29.59F
CLE-LAKEFRONT  CLOUDY    44  40  85 NE6       29.58F
CUY CO. ARPT   PTSUNNY   61  52  72 VRB6      29.59F
LORAIN-ELYRIA  MOSUNNY   60  49  66 SE6       29.57F
ASHTABULA      CLOUDY    59  50  72 SE6       29.60F
AKRON-CANTON   CLOUDY    62  51  67 NE8       29.57F
WOOSTER        CLOUDY    58  51  78 NE7       29.57F
MANSFIELD      CLOUDY    60  50  69 E7        29.55F
YOUNGSTOWN     LGT RAIN  56  50  80 E6        29.60F
$$

OHZ042-051>053-060>062-070>072-077>081-222000-
  SOUTHWEST OHIO

CITY           SKY/WX    TMP DP  RH WIND       PRES   REMARKS
CINC-COVINGTON CLOUDY    61  52  72 E10       29.45F
CINC-LUNKEN    CLOUDY    64  53  67 E9        29.46F
HAMILTON       CLOUDY    63  53  70 NE8       29.47F
DAYTON         CLOUDY    61  49  64 NE10      29.49F
WRIGHT-PAT AFB MOSUNNY   62  51  66 NE12      29.48F
DAYTON GENERAL MOSUNNY   62  50  64 NE13      29.46F
WILMINGTON     CLOUDY    60  50  69 E12       29.47F
$$

OHZ036-037-039>041-045>050-054>059-063>069-073>076-082>088-222000-
  CENTRAL AND SOUTHEAST OHIO

CITY           SKY/WX    TMP DP  RH WIND       PRES   REMARKS
COLUMBUS       CLOUDY    63  47  55 E8        29.49F
OSU AIRPORT    MOSUNNY   62  47  57 E9        29.49F
BOLTON FIELD   SUNNY     61  48  63 E7        29.50F
RICKENBACK AFB NOT AVBL
NEWARK         CLOUDY    62  49  62 E7        29.50F
MARION           N/A     62  46  55 E8        29.53F
LANCASTER      CLOUDY    65  47  52 NE10      29.49F
ZANESVILLE     CLOUDY    64  46  52 E10       29.51F
NEW PHILLY     NOT AVBL
$$




USA.gov is the U.S. government's official web portal to all federal, state and local government web resources and services.